�������l�o���
Date,Time,MP-1(��Sv/h),MP-2(��Sv/h),MP-3(��Sv/h),MP-4(��Sv/h),MP-5(��Sv/h),MP-6(��Sv/h),MP-7(��Sv/h),MP-8(��Sv/h),����,����(m/s),���J
2023/07/31,00:00,0.533,0.804,0.493,0.986,0.719,0.323,0.577,0.537,��쐼,3.4,��
2023/07/31,00:10,0.535,0.802,0.492,0.987,0.718,0.323,0.576,0.538,��,2.8,��
2023/07/31,00:20,0.535,0.803,0.492,0.987,0.719,0.323,0.576,0.537,��쐼,2.6,��
2023/07/31,00:30,0.534,0.804,0.493,0.988,0.719,0.323,0.575,0.537,�쐼,2.0,��
2023/07/31,00:40,0.533,0.802,0.492,0.988,0.717,0.323,0.578,0.538,�쐼,2.6,��
2023/07/31,00:50,0.533,0.803,0.493,0.986,0.718,0.324,0.577,0.538,���쐼,2.6,��
2023/07/31,01:00,0.536,0.805,0.492,0.986,0.718,0.323,0.576,0.537,��쐼,2.0,��
2023/07/31,01:10,0.536,0.803,0.492,0.987,0.717,0.324,0.578,0.536,��쐼,2.0,��
2023/07/31,01:20,0.534,0.803,0.492,0.988,0.718,0.322,0.575,0.538,��쐼,3.0,��
2023/07/31,01:30,0.534,0.802,0.493,0.988,0.719,0.324,0.574,0.536,��쐼,3.8,��
2023/07/31,01:40,0.535,0.803,0.492,0.988,0.719,0.323,0.577,0.537,��쐼,2.3,��
2023/07/31,01:50,0.535,0.803,0.493,0.986,0.719,0.323,0.577,0.537,��쐼,1.7,��
2023/07/31,02:00,0.535,0.803,0.492,0.987,0.718,0.324,0.576,0.538,���쐼,1.2,��
2023/07/31,02:10,0.536,0.802,0.491,0.988,0.719,0.323,0.578,0.539,��,0.9,��
2023/07/31,02:20,0.535,0.803,0.492,0.987,0.719,0.324,0.578,0.536,-,CALM,��
2023/07/31,02:30,0.533,0.803,0.492,0.987,0.719,0.323,0.576,0.537,�k,1.2,��
2023/07/31,02:40,0.534,0.803,0.492,0.988,0.720,0.324,0.578,0.537,�k�k��,2.0,��
2023/07/31,02:50,0.536,0.804,0.494,0.986,0.719,0.323,0.576,0.538,�k�k��,2.2,��
2023/07/31,03:00,0.534,0.803,0.492,0.988,0.719,0.322,0.578,0.538,�k�k��,2.3,��
2023/07/31,03:10,0.535,0.804,0.493,0.988,0.719,0.324,0.576,0.536,�k,2.5,��
2023/07/31,03:20,0.534,0.804,0.492,0.988,0.718,0.323,0.575,0.538,�k�k��,2.2,��
2023/07/31,03:30,0.537,0.802,0.493,0.989,0.720,0.323,0.577,0.537,�k,1.5,��
2023/07/31,03:40,0.534,0.803,0.494,0.988,0.720,0.323,0.576,0.538,�k,1.7,��
2023/07/31,03:50,0.536,0.804,0.493,0.989,0.718,0.324,0.576,0.539,�k�k��,2.0,��
2023/07/31,04:00,0.534,0.803,0.493,0.989,0.719,0.322,0.577,0.537,�k�k��,1.5,��
2023/07/31,04:10,0.534,0.803,0.492,0.988,0.718,0.323,0.577,0.537,�k��,2.6,��
2023/07/31,04:20,0.536,0.803,0.492,0.988,0.721,0.323,0.577,0.537,�k��,5.1,��
2023/07/31,04:30,0.533,0.803,0.493,0.986,0.721,0.323,0.576,0.536,�k��,4.5,��
2023/07/31,04:40,0.533,0.805,0.493,0.987,0.718,0.324,0.576,0.537,�k��,5.5,��
2023/07/31,04:50,0.533,0.803,0.492,0.990,0.719,0.322,0.577,0.537,�k�k��,4.8,��
2023/07/31,05:00,0.534,0.802,0.493,0.989,0.719,0.323,0.575,0.539,�k��,2.6,��
2023/07/31,05:10,0.536,0.805,0.492,0.987,0.718,0.322,0.576,0.535,�k��,3.0,��
2023/07/31,05:20,0.533,0.803,0.493,0.990,0.718,0.323,0.577,0.537,���k��,1.5,��
2023/07/31,05:30,0.534,0.803,0.491,0.989,0.719,0.323,0.576,0.537,��,1.4,��
2023/07/31,05:40,0.534,0.803,0.491,0.986,0.720,0.324,0.577,0.537,���k��,2.3,��
2023/07/31,05:50,0.535,0.807,0.492,0.988,0.719,0.323,0.575,0.538,���k��,1.5,��
2023/07/31,06:00,0.534,0.805,0.491,0.990,0.721,0.323,0.577,0.537,�k��,1.9,��
2023/07/31,06:10,0.533,0.802,0.493,0.988,0.720,0.324,0.577,0.538,�k��,2.6,��
2023/07/31,06:20,0.534,0.804,0.494,0.986,0.719,0.325,0.578,0.537,��,2.3,��
2023/07/31,06:30,0.533,0.803,0.492,0.990,0.720,0.322,0.576,0.538,�쐼,1.7,��
2023/07/31,06:40,0.535,0.804,0.494,0.989,0.719,0.325,0.576,0.539,��,2.0,��
2023/07/31,06:50,0.536,0.806,0.495,0.989,0.722,0.324,0.577,0.537,��,2.8,��
2023/07/31,07:00,0.536,0.805,0.494,0.987,0.720,0.324,0.578,0.537,��,2.3,��
2023/07/31,07:10,0.536,0.806,0.496,0.988,0.722,0.324,0.577,0.539,��쓌,1.4,��
2023/07/31,07:20,0.535,0.805,0.493,0.988,0.720,0.323,0.576,0.536,��,1.2,��
2023/07/31,07:30,0.536,0.805,0.495,0.989,0.721,0.323,0.577,0.537,��쓌,1.7,��
2023/07/31,07:40,0.536,0.805,0.493,0.989,0.718,0.323,0.578,0.538,��,1.1,��
2023/07/31,07:50,0.536,0.805,0.494,0.990,0.717,0.324,0.576,0.536,��,1.4,��
2023/07/31,08:00,0.535,0.805,0.493,0.990,0.719,0.322,0.580,0.539,��,1.5,��
2023/07/31,08:10,0.536,0.807,0.494,0.988,0.722,0.322,0.577,0.535,���쐼,0.6,��
2023/07/31,08:20,0.535,0.806,0.495,0.987,0.720,0.324,0.579,0.537,�쓌,0.9,��
2023/07/31,08:30,0.536,0.807,0.495,0.989,0.721,0.323,0.580,0.536,���쓌,1.1,��
2023/07/31,08:40,0.536,0.807,0.495,0.989,0.722,0.323,0.579,0.536,���쓌,1.2,��
2023/07/31,08:50,0.538,0.807,0.495,0.990,0.720,0.323,0.580,0.535,��,1.7,��
2023/07/31,09:00,0.537,0.808,0.495,0.990,0.722,0.323,0.579,0.535,��,1.4,��
2023/07/31,09:10,0.538,0.810,0.496,0.989,0.722,0.323,0.579,0.535,�k��,1.5,��
2023/07/31,09:20,0.537,0.809,0.496,0.994,0.717,0.325,0.580,0.536,�k��,1.2,��
2023/07/31,09:30,0.537,0.811,0.495,0.994,0.724,0.322,0.579,0.537,��,2.0,��
2023/07/31,09:40,0.537,0.810,0.495,0.992,0.724,0.323,0.579,0.536,���쓌,3.0,��
2023/07/31,09:50,0.538,0.812,0.496,0.992,0.728,0.322,0.577,0.536,���쓌,3.1,��
2023/07/31,10:00,0.538,0.810,0.496,0.992,0.727,0.324,0.578,0.536,��,2.5,��
2023/07/31,10:10,0.538,0.813,0.498,0.993,0.727,0.324,0.578,0.536,��,2.6,��
2023/07/31,10:20,0.538,0.812,0.497,0.991,0.729,0.323,0.578,0.536,���쓌,2.6,��
2023/07/31,10:30,0.538,0.812,0.499,0.993,0.728,0.324,0.578,0.538,���쓌,3.2,��
2023/07/31,10:40,0.540,0.813,0.500,0.992,0.730,0.323,0.578,0.537,�쓌,3.2,��
2023/07/31,10:50,0.538,0.814,0.499,0.994,0.729,0.323,0.578,0.536,�쓌,3.1,��
2023/07/31,11:00,0.540,0.818,0.499,0.995,0.728,0.324,0.578,0.537,�쓌,3.2,��
2023/07/31,11:10,0.539,0.815,0.498,0.993,0.726,0.323,0.577,0.538,�쓌,3.9,��
2023/07/31,11:20,0.539,0.816,0.500,0.991,0.731,0.324,0.577,0.538,�쓌,4.5,��
2023/07/31,11:30,0.540,0.815,0.498,0.991,0.730,0.324,0.577,0.537,�쓌,5.0,��
2023/07/31,11:40,0.539,0.814,0.499,0.992,0.730,0.325,0.579,0.537,��쓌,5.2,��
2023/07/31,11:50,0.542,0.816,0.499,0.992,0.730,0.325,0.579,0.537,��쓌,5.5,��
2023/07/31,12:00,0.540,0.817,0.499,0.992,0.730,0.324,0.577,0.537,��쓌,5.2,��
2023/07/31,12:10,0.540,0.817,0.499,0.994,0.731,0.324,0.578,0.537,��쓌,5.9,��
2023/07/31,12:20,0.540,0.818,0.500,0.992,0.731,0.324,0.578,0.539,��,5.6,��
2023/07/31,12:30,0.541,0.818,0.500,0.992,0.732,0.325,0.579,0.538,��쓌,4.4,��
2023/07/31,12:40,0.542,0.820,0.500,0.993,0.731,0.324,0.578,0.537,��쓌,4.0,��
2023/07/31,12:50,0.542,0.820,0.500,0.993,0.733,0.325,0.578,0.537,��쓌,5.7,��
2023/07/31,13:00,0.542,0.822,0.501,0.994,0.734,0.325,0.579,0.538,��쓌,4.8,��
2023/07/31,13:10,0.541,0.821,0.501,0.994,0.733,0.326,0.580,0.538,��쓌,5.7,��
2023/07/31,13:20,0.541,0.821,0.501,0.997,0.735,0.326,0.580,0.539,��쓌,5.2,��
2023/07/31,13:30,0.542,0.820,0.502,0.995,0.735,0.327,0.581,0.539,��쓌,5.5,��
2023/07/31,13:40,0.544,0.820,0.501,0.993,0.734,0.326,0.580,0.540,��,6.6,��
2023/07/31,13:50,0.542,0.820,0.502,0.995,0.735,0.325,0.581,0.539,��,6.4,��
2023/07/31,14:00,0.542,0.822,0.503,0.995,0.736,0.327,0.582,0.539,��,6.0,��
2023/07/31,14:10,0.541,0.823,0.501,0.994,0.736,0.327,0.581,0.539,��,5.6,��
2023/07/31,14:20,0.541,0.822,0.502,0.993,0.736,0.326,0.582,0.539,��,6.5,��
2023/07/31,14:30,0.543,0.819,0.503,0.996,0.735,0.328,0.581,0.540,��,5.9,��
2023/07/31,14:40,0.541,0.822,0.502,0.996,0.735,0.328,0.582,0.540,��쓌,5.6,��
2023/07/31,14:50,0.543,0.825,0.502,0.996,0.735,0.328,0.581,0.538,��쓌,6.6,��
2023/07/31,15:00,0.541,0.822,0.500,0.995,0.734,0.326,0.580,0.537,��쓌,6.4,��
2023/07/31,15:10,0.542,0.821,0.502,0.997,0.735,0.325,0.580,0.537,��,6.5,��
2023/07/31,15:20,0.542,0.819,0.500,0.995,0.736,0.326,0.579,0.538,��,6.6,��
2023/07/31,15:30,0.543,0.819,0.500,0.999,0.732,0.324,0.580,0.540,��,6.3,��
2023/07/31,15:40,0.542,0.818,0.500,0.996,0.735,0.324,0.578,0.539,��,7.3,��
2023/07/31,15:50,0.542,0.821,0.501,0.997,0.734,0.326,0.579,0.539,��,6.5,��
2023/07/31,16:00,0.542,0.821,0.500,0.996,0.734,0.324,0.580,0.539,��,6.8,��
2023/07/31,16:10,0.542,0.822,0.500,0.999,0.734,0.324,0.580,0.538,��,5.4,��
2023/07/31,16:20,0.542,0.821,0.499,0.997,0.733,0.324,0.580,0.540,��쓌,5.7,��
2023/07/31,16:30,0.542,0.823,0.501,0.998,0.734,0.325,0.580,0.540,��쓌,5.7,��
2023/07/31,16:40,0.543,0.821,0.501,0.998,0.737,0.326,0.578,0.538,��쓌,6.1,��
2023/07/31,16:50,0.542,0.823,0.500,0.999,0.734,0.326,0.580,0.539,��쓌,6.7,��
2023/07/31,17:00,0.542,0.822,0.500,1.001,0.735,0.324,0.579,0.539,��쓌,5.9,��
2023/07/31,17:10,0.542,0.822,0.502,0.998,0.735,0.326,0.579,0.539,��쓌,5.5,��
2023/07/31,17:20,0.542,0.822,0.500,1.000,0.735,0.326,0.579,0.537,��쓌,5.6,��
2023/07/31,17:30,0.541,0.820,0.500,1.001,0.733,0.324,0.578,0.537,��쓌,6.3,��
2023/07/31,17:40,0.541,0.822,0.501,0.999,0.737,0.324,0.580,0.540,��쓌,5.7,��
2023/07/31,17:50,0.541,0.820,0.499,0.997,0.734,0.325,0.580,0.537,��,5.5,��
2023/07/31,18:00,0.543,0.820,0.501,1.000,0.735,0.324,0.579,0.537,��,4.5,��
2023/07/31,18:10,0.543,0.821,0.502,0.998,0.734,0.325,0.578,0.538,��,4.1,��
2023/07/31,18:20,0.542,0.819,0.500,1.000,0.737,0.324,0.579,0.538,��쐼,2.6,��
2023/07/31,18:30,0.543,0.820,0.499,0.997,0.734,0.325,0.579,0.538,�쐼,1.4,��
2023/07/31,18:40,0.543,0.819,0.499,1.000,0.735,0.325,0.579,0.538,���쐼,1.5,��
2023/07/31,18:50,0.543,0.818,0.501,0.998,0.735,0.324,0.579,0.538,��쐼,1.9,��
2023/07/31,19:00,0.544,0.820,0.499,0.998,0.734,0.325,0.580,0.539,��쐼,1.7,��
2023/07/31,19:10,0.545,0.821,0.502,0.998,0.735,0.324,0.579,0.538,�쐼,1.5,��
2023/07/31,19:20,0.543,0.820,0.502,0.999,0.734,0.326,0.579,0.540,�쐼,1.7,��
2023/07/31,19:30,0.543,0.820,0.500,0.998,0.737,0.325,0.579,0.537,�쐼,2.0,��
2023/07/31,19:40,0.545,0.822,0.501,1.000,0.736,0.326,0.579,0.539,���쐼,2.3,��
2023/07/31,19:50,0.543,0.821,0.501,0.999,0.736,0.327,0.581,0.539,���쐼,3.0,��
2023/07/31,20:00,0.544,0.824,0.500,0.999,0.736,0.325,0.580,0.539,��,2.8,��
2023/07/31,20:10,0.542,0.823,0.502,0.999,0.737,0.326,0.580,0.540,��,2.3,��
2023/07/31,20:20,0.545,0.823,0.502,0.997,0.737,0.326,0.581,0.538,���k��,4.2,��
2023/07/31,20:30,0.544,0.823,0.502,1.000,0.737,0.326,0.580,0.540,�k��,5.2,��
2023/07/31,20:40,0.543,0.823,0.501,1.002,0.738,0.326,0.582,0.539,�k��,3.1,��
2023/07/31,20:50,0.545,0.823,0.502,0.999,0.739,0.326,0.580,0.538,�k��,3.5,��
2023/07/31,21:00,0.544,0.825,0.502,1.001,0.736,0.327,0.581,0.539,���k��,3.9,��
2023/07/31,21:10,0.544,0.824,0.503,0.999,0.739,0.326,0.580,0.539,���k��,4.4,��
2023/07/31,21:20,0.543,0.823,0.504,1.001,0.738,0.327,0.580,0.540,�k��,3.8,��
2023/07/31,21:30,0.544,0.821,0.502,1.000,0.735,0.327,0.581,0.539,�k��,4.0,��
2023/07/31,21:40,0.545,0.823,0.503,1.002,0.737,0.327,0.582,0.540,�k�k��,3.7,��
2023/07/31,21:50,0.543,0.824,0.502,1.002,0.737,0.327,0.582,0.540,�k�k��,3.5,��
2023/07/31,22:00,0.545,0.823,0.503,1.001,0.740,0.327,0.580,0.541,�k,2.3,��
2023/07/31,22:10,0.544,0.823,0.502,1.000,0.739,0.327,0.581,0.539,�k�k��,1.4,��
2023/07/31,22:20,0.545,0.822,0.502,1.002,0.736,0.327,0.581,0.540,�k�k��,1.4,��
2023/07/31,22:30,0.544,0.823,0.501,1.000,0.738,0.328,0.582,0.540,�k�k��,1.5,��
2023/07/31,22:40,0.544,0.822,0.503,0.999,0.737,0.327,0.582,0.539,�k,1.7,��
2023/07/31,22:50,0.543,0.822,0.502,1.001,0.737,0.327,0.581,0.540,�k�k��,2.3,��
2023/07/31,23:00,0.544,0.821,0.502,1.002,0.735,0.327,0.582,0.539,�k�k��,3.7,�L
2023/07/31,23:10,0.545,0.822,0.503,0.999,0.737,0.327,0.581,0.540,�k��,3.6,�L
2023/07/31,23:20,0.544,0.822,0.502,1.001,0.736,0.328,0.581,0.542,���k��,3.4,��
2023/07/31,23:30,0.545,0.822,0.503,1.001,0.738,0.328,0.580,0.540,�k��,4.7,��
2023/07/31,23:40,0.545,0.822,0.503,1.002,0.737,0.328,0.580,0.539,�k��,4.6,��
2023/07/31,23:50,0.543,0.823,0.502,1.003,0.737,0.328,0.583,0.541,�k��,4.5,��
